User: anonymous
Location: Unspecified
(0.0000°N, 0.0000°E)
Time: 08:49:18
(UTC+02:00)
Language:

Hamsat - Orbit

View from above orbital plane
View from above orbital plane
View from above satellite
View from above satellite

Ground track
Ground track

The orbit data is extracted from the following two-line orbital elements,

1 28650U 05017B   14231.06341902  .00000901  00000-0  10942-3 0  8213
2 28650 097.5619 232.8975 0023465 312.3752 047.5477 14.85665806502560
Epoch (UTC): 19 August 2014 01:31:19
Eccentricity: 0.0023465
inclination: 97.5619°
perigee height: 595 km
apogee height: 628 km
right ascension of ascending node: 232.8975°
argument of perigee: 312.3752°
revolutions per day: 14.85665806
mean anomaly at epoch: 47.5477°
orbit number at epoch: 50256

The dashed part of the orbit path shows where the satellite is in the earth's shadow,  

DLR